User: anonymous   Login
Location: Caltech
(34.1382°N, 118.1253°W)
Time: 12:50:45
(UTC-07:00)
Language:

Cosmos 2333 Rocket - Orbit

View from above orbital plane
View from above orbital plane
View from above satellite
View from above satellite

Ground track
Ground track

The orbit data is extracted from the following two-line orbital elements,

1 24298U 96051B   18173.88681631 -.00000171 +00000-0 -65905-4 0  9997
2 24298 070.8345 000.7320 0016095 341.8094 018.2448 14.12429580123904
Epoch (UTC): 22 June 2018 21:17:00
Eccentricity: 0.0016095
inclination: 70.8345°
perigee height: 839 km
apogee height: 863 km
right ascension of ascending node: 0.7320°
argument of perigee: 341.8094°
revolutions per day: 14.12429580
mean anomaly at epoch: 18.2448°
orbit number at epoch: 12390

The dashed part of the orbit path shows where the satellite is in the earth's shadow,  

DLR